Temp
11 11 12 12 14 14 13 13 13 13 14 14 13 12 14 15 16 16 15 14 14 15 15 16 17 18 18 18 19 20 19 19 19 18 18 16 15 15 14 14 14 13 14 13
11 12 13 12 12 14 14 14 13 13 14 14 13 13 13 13 15 15 14 14 14 15 16 16 16 17 18 18 18 19 19 19 18 18 17 16 15 14 13 13 13 13 13 13
12 12 14 13 12 13 13 13 13 13 13 13 12 13 13 15 14 14 14 14 14 15 15 15 16 16 16 17 17 17 17 17 17 16 15 15 13 13 13 13 12 12 12 12
11 12 13 14 12 13 12 13 14 14 13 12 13 12 12 13 13 11 13 14 14 14 14 14 14 15 15 15 15 15 15 15 14 14 14 14 13 13 12 11 11 11 12 12
11 11 11 13 14 12 13 14 13 14 12 12 13 12 12 13 13 12 10 13 14 14 14 14 14 14 14 14 14 14 14 14 13 13 13 13 12 12 11 12 12 12 12 11
12 13 12 12 13 13 13 13 13 10 10 11 12 13 12 12 12 12 11 13 13 14 13 13 13 13 13 13 13 13 13 13 12 12 12 12 12 12 12 12 12 12 11 11
11 11 12 13 13 13 13 14 11 12 11 11 11 11 12 14 13 12 11 13 13 13 13 13 13 13 13 13 12 12 12 12 11 12 12 12 11 11 11 11 11 11 11 11
11 11 11 13 13 11 12 12 11 12 11 11 10 11 14 13 11 13 15 15 13 13 13 13 13 12 13 12 12 12 12 12 11 11 11 11 10 10 10 10 10 9 9 8
11 11 12 13 13 13 11 12 12 11 10 10 11 12 13 12 10 10 12 13 13 13 13 13 12 12 12 12 12 11 11 11 11 11 11 10 10 10 10 10 9 9 8 7
11 10 12 13 14 13 12 12 13 10 13 13 11 12 13 14 13 10 8 11 12 13 13 12 12 12 11 11 11 11 11 11 10 10 10 9 9 9 9 8 8 7 7 6
11 11 12 12 12 12 12 12 10 11 10 11 11 12 11 13 12 10 9 12 12 13 13 12 11 11 11 10 10 10 10 10 9 9 9 9 8 8 7 6 6 6 6 5
12 9 10 12 12 11 12 11 11 11 11 8 9 11 12 10 10 11 11 12 13 13 13 12 11 11 10 10 9 9 9 9 9 8 8 7 7 6 6 6 6 5 5 5
11 10 10 12 12 11 12 11 10 9 9 8 10 12 12 9 10 12 13 14 14 13 12 10 10 9 9 9 8 8 8 8 8 7 7 7 6 5 5 5 5 4 4 4
14 10 11 11 13 10 11 11 10 11 9 9 9 13 14 12 12 13 13 14 14 13 11 10 9 8 8 8 8 8 7 7 7 6 6 5 4 4 4 3 4 4 3 3
12 12 12 11 11 11 11 11 9 11 12 12 13 11 14 13 13 12 13 12 11 11 10 9 9 8 8 7 7 7 6 6 5 5 4 4 4 3 3 3 3 3 3 2
10 11 12 11 11 12 13 12 9 11 10 12 10 12 12 11 12 12 12 13 11 10 10 9 8 8 7 6 6 6 5 5 4 4 4 3 3 3 2 2 2 2 2 2
11 10 11 11 11 12 12 10 9 10 10 10 10 11 10 10 10 12 13 13 13 12 11 9 8 7 6 6 5 5 4 4 4 4 3 2 2 2 2 1 1 1 1 1
10 9 9 9 10 11 13 10 10 9 9 10 9 9 10 10 11 11 11 12 12 11 10 8 7 6 5 5 5 4 3 3 3 3 2 2 1 1 1 1 1 1 -0 -1
8 9 8 10 9 11 12 9 9 11 9 9 8 8 9 10 10 10 11 11 11 11 9 7 6 5 5 4 3 2 2 2 1 1 1 1 1 0 -0 0 -0 -1 -2 -2
7 7 9 4 8 11 12 11 11 11 10 8 9 8 8 9 7 6 9 9 9 9 7 6 5 5 4 3 3 2 2 1 1 1 1 0 -0 -1 -0 -1 -2 -2 -3 -3
8 7 8 8 9 9 10 10 11 11 10 7 9 9 8 6 8 8 8 7 7 6 5 5 4 3 3 2 2 2 1 0 0 0 -0 -0 -1 -1 -2 -2 -3 -3 -4 -4
8 7 7 6 8 10 9 10 10 8 8 9 9 9 8 8 8 7 7 6 6 5 5 4 3 3 2 2 1 -0 -1 -0 -0 -0 -1 -1 -2 -2 -2 -3 -3 -4 -4 -5
9 8 8 7 8 7 8 9 10 10 9 8 8 8 8 8 7 7 7 6 5 4 3 3 2 2 1 0 -0 -1 -1 -1 -1 -1 -1 -2 -2 -3 -3 -4 -4 -5 -5 -6
7 6 7 8 7 7 8 9 9 9 9 8 8 8 7 7 6 6 6 5 5 3 2 2 1 0 -0 -0 -1 -1 -1 -1 -1 -2 -2 -3 -3 -3 -4 -4 -5 -6 -7 -8
6 6 6 6 5 6 7 8 9 8 8 7 7 7 6 6 6 5 5 4 4 3 2 1 0 -0 -0 -1 -1 -1 -2 -2 -2 -3 -3 -3 -3 -4 -4 -5 -6 -8 -9 -9
4 6 6 6 7 7 7 8 8 8 7 7 6 6 6 5 5 4 3 3 2 1 1 0 -0 -0 -1 -1 -1 -2 -2 -3 -3 -4 -4 -4 -5 -5 -6 -7 -7 -8 -10 -10
Height
1478 1482 1481 1488 1489 1495 1500 1505 1508 1502 1498 1499 1497 1495 1482 1477 1478 1477 1479 1482 1482 1480 1481 1482 1481 1480 1481 1480 1479 1476 1476 1475 1476 1477 1478 1479 1480 1480 1480 1480 1480 1480 1479 1477
1477 1476 1478 1486 1491 1494 1498 1503 1506 1501 1497 1498 1494 1490 1479 1474 1473 1473 1477 1481 1483 1480 1482 1483 1482 1483 1483 1481 1479 1479 1477 1477 1477 1477 1478 1478 1479 1479 1480 1479 1479 1478 1476 1475
1469 1471 1478 1485 1492 1496 1499 1504 1503 1505 1499 1494 1496 1489 1481 1473 1473 1473 1478 1481 1483 1483 1483 1483 1483 1483 1483 1481 1480 1480 1480 1480 1479 1479 1479 1479 1480 1480 1480 1479 1478 1477 1476 1474
1472 1473 1475 1480 1489 1492 1504 1498 1498 1501 1507 1513 1499 1510 1487 1475 1474 1474 1477 1480 1482 1483 1486 1482 1483 1483 1483 1483 1484 1484 1483 1482 1481 1481 1480 1480 1480 1480 1480 1480 1479 1477 1475 1473
1469 1472 1476 1478 1482 1489 1495 1493 1498 1500 1507 1508 1504 1513 1485 1476 1476 1476 1476 1479 1483 1484 1485 1484 1483 1483 1484 1486 1486 1486 1485 1484 1484 1483 1482 1482 1482 1482 1482 1481 1479 1476 1474 1472
1466 1467 1470 1477 1481 1485 1490 1497 1501 1507 1511 1518 1501 1503 1489 1477 1472 1472 1474 1477 1482 1483 1485 1485 1484 1484 1485 1486 1487 1487 1486 1485 1486 1485 1484 1483 1483 1482 1481 1479 1477 1474 1472 1469
1470 1470 1470 1471 1482 1486 1491 1496 1515 1515 1519 1514 1499 1506 1482 1464 1464 1463 1468 1474 1480 1483 1485 1484 1484 1485 1484 1486 1488 1488 1487 1486 1486 1486 1485 1483 1482 1481 1479 1476 1474 1471 1468 1465
1470 1480 1471 1466 1472 1485 1492 1495 1509 1512 1516 1507 1503 1499 1472 1460 1460 1460 1463 1470 1478 1481 1483 1483 1483 1484 1484 1485 1487 1488 1487 1487 1487 1486 1484 1484 1483 1480 1478 1476 1473 1470 1466 1462
1467 1469 1464 1462 1466 1476 1492 1491 1488 1501 1506 1510 1495 1480 1462 1459 1459 1459 1462 1468 1475 1478 1480 1482 1483 1484 1484 1486 1487 1487 1487 1487 1486 1485 1485 1483 1482 1480 1477 1474 1471 1467 1463 1459
1454 1472 1464 1465 1467 1474 1477 1480 1495 1502 1501 1504 1496 1490 1478 1460 1459 1463 1465 1468 1473 1477 1479 1481 1482 1482 1483 1486 1487 1487 1487 1486 1485 1485 1484 1482 1480 1478 1475 1472 1468 1464 1460 1455
1445 1456 1470 1467 1470 1476 1479 1483 1488 1490 1500 1501 1505 1487 1467 1462 1460 1463 1466 1469 1472 1475 1478 1479 1480 1481 1483 1485 1486 1486 1485 1485 1485 1484 1482 1481 1479 1475 1471 1467 1464 1460 1456 1451
1440 1456 1470 1467 1464 1466 1467 1474 1477 1491 1497 1505 1505 1488 1461 1461 1458 1461 1467 1470 1473 1475 1476 1477 1478 1480 1482 1483 1484 1484 1483 1483 1483 1482 1480 1478 1475 1472 1469 1464 1460 1455 1452 1448
1439 1454 1473 1471 1469 1467 1466 1469 1473 1481 1488 1499 1499 1486 1461 1460 1460 1463 1467 1470 1471 1474 1474 1475 1477 1479 1481 1481 1482 1482 1482 1481 1481 1479 1477 1474 1471 1468 1464 1461 1456 1452 1449 1445
1432 1447 1453 1461 1454 1461 1468 1467 1470 1471 1488 1490 1487 1471 1462 1464 1464 1465 1467 1468 1470 1470 1471 1473 1476 1478 1479 1480 1480 1480 1480 1480 1479 1476 1474 1471 1467 1463 1460 1457 1453 1449 1445 1441
1435 1443 1446 1451 1450 1451 1455 1458 1466 1469 1465 1473 1466 1473 1463 1462 1464 1465 1465 1465 1465 1466 1468 1471 1474 1475 1477 1477 1478 1479 1479 1478 1476 1473 1470 1467 1464 1461 1457 1454 1449 1445 1441 1437
1434 1446 1442 1451 1451 1450 1452 1453 1461 1462 1464 1462 1466 1466 1461 1462 1463 1464 1463 1463 1463 1465 1467 1470 1472 1473 1474 1475 1477 1477 1476 1475 1472 1469 1466 1464 1461 1457 1454 1450 1445 1442 1438 1433
1435 1441 1447 1454 1453 1452 1457 1452 1456 1456 1455 1457 1465 1459 1458 1462 1463 1464 1464 1463 1463 1464 1465 1467 1469 1471 1472 1474 1474 1474 1473 1470 1468 1467 1463 1460 1457 1453 1450 1446 1442 1438 1432 1428
1434 1440 1448 1461 1456 1467 1442 1443 1444 1450 1453 1453 1454 1455 1458 1461 1463 1464 1463 1463 1463 1463 1464 1465 1467 1468 1470 1471 1471 1471 1469 1467 1466 1462 1459 1456 1453 1450 1447 1443 1438 1433 1428 1423
1428 1437 1454 1456 1462 1450 1442 1445 1446 1444 1455 1452 1454 1456 1458 1460 1462 1463 1463 1462 1463 1461 1461 1463 1466 1467 1468 1468 1468 1467 1466 1465 1461 1459 1456 1453 1449 1446 1442 1439 1434 1429 1423 1417
1432 1433 1440 1468 1461 1453 1437 1436 1436 1438 1452 1450 1451 1456 1458 1460 1467 1464 1462 1462 1460 1460 1460 1462 1464 1465 1465 1465 1465 1464 1462 1460 1458 1456 1453 1450 1446 1443 1440 1435 1430 1424 1418 1412
1441 1445 1447 1451 1453 1447 1437 1436 1436 1451 1450 1448 1451 1454 1457 1460 1461 1461 1460 1459 1459 1459 1460 1461 1461 1462 1463 1462 1461 1460 1459 1456 1455 1452 1450 1447 1444 1440 1436 1430 1425 1418 1412 1406
1434 1446 1452 1459 1454 1448 1435 1437 1442 1443 1445 1448 1452 1454 1456 1457 1458 1457 1457 1457 1457 1458 1458 1459 1460 1460 1460 1459 1458 1457 1455 1453 1451 1449 1446 1443 1440 1436 1431 1424 1418 1412 1406 1400
1432 1431 1436 1439 1439 1434 1435 1435 1438 1441 1444 1449 1452 1453 1455 1455 1455 1455 1455 1456 1456 1456 1457 1457 1458 1457 1457 1456 1455 1453 1452 1450 1448 1445 1442 1439 1435 1430 1424 1418 1412 1406 1402 1395
1429 1429 1432 1435 1437 1436 1436 1438 1440 1443 1446 1448 1450 1451 1452 1452 1452 1453 1453 1453 1453 1454 1454 1455 1455 1455 1454 1452 1451 1450 1448 1446 1443 1441 1438 1434 1428 1422 1417 1413 1408 1402 1396 1389
1428 1429 1433 1437 1437 1438 1438 1438 1440 1442 1445 1446 1448 1449 1449 1450 1450 1450 1450 1450 1450 1451 1451 1452 1451 1450 1450 1450 1448 1446 1444 1442 1440 1436 1432 1427 1421 1416 1411 1407 1401 1396 1391 1387
1423 1424 1429 1429 1425 1429 1432 1437 1439 1440 1442 1444 1446 1447 1447 1447 1446 1446 1446 1446 1447 1447 1447 1447 1447 1447 1447 1446 1445 1444 1442 1439 1435 1430 1425 1420 1414 1410 1405 1398 1391 1390 1385 1381
Wind_Speed
16 9 12 13 13 4 6 4 7 4 4 2 7 8 15 14 11 7 8 8 10 14 14 12 12 12 12 13 12 14 13 12 7 5 5 9 11 12 13 14 15 15 16 17
8 16 14 7 7 4 3 3 5 6 1 3 7 10 12 7 7 4 13 12 10 15 13 12 12 12 13 14 15 14 14 13 11 8 6 5 5 6 7 8 10 11 12 13
11 4 15 13 6 10 3 5 4 5 7 4 6 7 6 2 2 8 12 11 11 12 14 14 14 14 14 16 16 16 16 15 14 13 9 7 5 5 4 7 8 9 11 12
6 5 13 16 11 6 9 6 3 3 4 3 5 6 6 5 4 6 12 13 13 13 13 16 15 15 14 16 14 14 14 15 16 14 13 11 10 10 12 10 10 10 11 13
7 14 11 15 17 9 4 5 6 2 3 3 1 2 7 2 5 6 9 14 13 13 13 16 16 14 14 12 12 12 12 14 14 14 14 13 12 11 9 8 10 13 16 18
3 9 10 7 4 11 6 5 2 3 2 2 6 7 6 4 6 4 6 16 16 16 16 15 14 12 12 11 9 10 11 12 12 12 12 12 11 11 12 14 17 20 22 25
1 4 3 8 6 3 4 7 2 1 1 6 1 2 8 4 5 9 14 21 19 18 17 15 13 11 11 9 9 9 10 11 12 12 12 13 13 14 16 18 22 25 28 31
7 5 8 6 6 6 7 8 5 6 4 4 2 6 5 3 9 10 25 28 22 19 16 14 12 10 9 7 6 7 9 10 11 12 13 13 14 17 20 23 26 28 30 31
8 5 2 5 5 11 6 8 4 5 1 1 3 7 8 4 6 4 23 29 24 20 17 14 12 9 7 5 5 5 7 8 10 12 13 15 18 21 25 27 29 29 29 30
7 5 0 2 7 3 7 8 2 2 3 4 4 5 5 5 2 3 8 23 23 19 17 15 12 10 8 5 3 2 3 7 10 11 13 18 21 24 25 26 26 27 27 29
6 4 2 6 6 8 2 4 4 4 3 4 1 6 5 5 4 8 8 21 22 19 17 16 13 11 8 6 4 1 3 6 9 12 16 19 22 24 24 24 25 26 26 27
4 6 6 3 1 5 4 7 6 5 4 1 3 6 2 5 4 10 9 15 17 16 17 17 14 12 11 8 5 2 3 7 10 14 19 23 24 24 23 24 26 27 27 27
8 2 5 2 1 2 4 4 4 5 3 6 6 5 3 6 6 9 12 13 15 16 19 18 16 15 12 8 5 3 5 9 13 19 23 23 23 23 25 26 25 25 26 27
8 3 6 9 4 6 5 5 5 6 4 5 6 5 3 3 5 5 5 4 10 17 19 18 18 15 12 8 5 4 6 10 16 20 21 21 23 25 26 25 26 26 27 29
4 4 3 3 4 4 6 9 11 9 9 7 5 8 3 2 4 4 6 2 6 13 18 19 18 15 12 8 4 3 7 13 19 20 21 23 25 25 25 25 26 27 28 30
3 2 3 2 3 3 2 4 8 4 4 2 5 4 2 3 4 3 3 3 1 8 15 17 18 15 12 8 5 5 11 17 21 22 24 25 24 25 25 26 27 29 31 34
5 5 3 3 2 2 4 8 8 5 4 7 7 6 4 3 6 5 5 3 3 7 12 18 18 15 12 8 3 8 14 19 20 23 24 24 24 24 25 27 29 32 35 37
5 5 3 3 1 1 3 1 6 7 2 5 6 6 5 7 4 3 3 4 7 11 13 18 19 15 10 5 6 11 15 19 21 20 21 23 23 24 26 29 32 34 36 38
3 5 3 5 4 3 0 4 7 6 3 1 7 5 5 5 2 1 5 6 10 11 12 15 14 11 9 7 7 12 17 18 18 19 20 22 24 26 28 32 33 34 37 38
5 6 4 2 4 7 1 2 8 4 2 7 8 6 6 5 2 4 6 5 4 5 8 12 12 11 9 6 10 15 17 18 18 19 21 23 24 27 30 31 34 36 36 39
3 3 4 2 2 5 3 4 5 5 3 10 12 11 9 4 5 3 4 2 2 5 9 12 11 9 6 8 14 18 16 17 19 20 22 23 25 28 31 34 34 36 39 41
6 6 4 3 2 6 4 4 6 5 14 16 12 8 5 3 1 2 2 2 4 7 10 10 8 8 9 12 14 13 15 18 20 22 23 25 27 30 32 34 37 38 40 42
1 4 4 6 4 0 2 3 19 18 19 12 7 6 4 3 1 3 6 8 8 9 9 10 10 10 10 11 13 14 17 20 22 24 25 27 30 32 34 36 38 40 41 40
1 2 3 3 2 3 14 18 14 13 10 8 6 5 3 3 4 6 9 9 10 11 11 11 10 10 9 11 13 16 19 21 24 26 27 30 34 37 36 37 37 38 38 37
3 5 4 1 2 3 7 9 11 10 7 5 2 3 5 7 9 11 10 10 10 10 11 10 10 9 10 12 15 17 20 22 24 27 30 34 36 37 39 38 38 36 33 28
5 6 5 5 11 5 10 11 9 8 5 5 4 4 7 10 12 12 11 9 8 7 8 10 10 11 11 14 16 18 20 23 26 30 34 35 37 38 38 40 42 37 30 26
Wind_Direction
190 191 191 185 192 166 153 185 215 255 258 268 279 275 278 281 277 258 196 150 112 100 89 82 76 69 65 68 64 53 47 44 35 4 312 291 295 299 295 298 304 310 315 312
188 206 197 144 157 173 145 188 251 283 215 189 306 285 274 267 268 238 176 154 132 111 107 97 87 80 72 66 57 50 44 40 38 35 15 354 339 325 327 334 338 340 337 329
198 168 186 167 158 175 193 192 251 239 334 317 327 290 311 338 133 133 155 152 141 124 122 109 98 85 74 64 55 47 43 40 38 38 38 43 53 69 62 36 24 15 4 357
226 155 184 173 179 158 222 197 210 283 21 260 37 286 295 266 186 147 152 160 154 141 132 115 104 92 76 67 61 56 51 48 50 52 55 59 64 55 56 45 33 13 359 348
179 173 182 175 196 167 217 149 193 222 210 355 286 297 270 154 205 195 180 169 169 150 139 123 111 101 91 83 68 58 53 54 54 50 51 49 49 48 35 12 355 349 346 341
202 158 162 161 169 177 154 81 57 54 83 292 228 186 275 207 211 158 175 177 175 157 146 131 121 115 103 90 77 62 48 51 47 39 37 32 25 16 358 353 348 345 340 337
193 158 159 147 133 69 107 119 284 277 282 229 78 168 253 227 231 184 180 184 177 164 156 143 136 130 117 104 81 60 43 44 37 28 22 18 10 1 355 350 345 338 334 331
159 172 179 173 178 150 184 173 163 199 203 260 114 238 251 228 285 240 193 176 171 170 165 157 150 144 127 110 85 54 40 35 24 13 11 7 359 355 349 344 340 337 334 333
162 184 151 156 121 140 198 202 190 102 13 49 237 289 307 360 19 134 162 169 173 173 168 168 160 152 139 125 100 56 32 19 7 3 358 352 349 347 344 339 334 330 330 332
190 106 132 138 102 82 175 160 111 9 229 249 287 279 246 337 342 132 155 168 172 171 171 176 174 170 159 151 125 69 7 355 357 353 351 352 347 339 332 329 330 333 335 336
136 107 181 137 179 162 161 163 58 123 138 176 303 274 218 272 256 196 184 178 175 176 182 187 187 179 177 177 183 228 339 349 351 354 351 343 336 335 335 334 334 335 337 339
179 123 147 158 260 179 163 168 154 147 214 133 145 274 337 285 274 160 159 183 188 195 197 200 194 190 188 193 204 241 323 344 350 346 343 340 337 334 332 333 337 337 337 337
174 123 106 90 79 335 192 177 127 116 99 187 153 261 355 46 90 146 158 193 202 206 205 200 194 193 197 202 214 268 325 341 342 343 339 334 331 331 334 335 335 334 334 334
115 143 152 189 182 141 176 179 169 144 153 175 219 272 352 50 132 158 155 196 227 223 211 205 198 197 201 209 237 299 335 343 344 336 331 331 334 337 334 335 335 334 334 335
136 135 123 45 133 136 179 180 181 194 200 188 216 204 216 160 221 254 299 286 219 210 205 203 199 200 206 219 241 292 337 345 340 333 333 336 335 333 334 333 333 334 333 333
103 158 114 76 65 110 188 187 182 193 163 209 136 227 177 100 108 77 26 22 223 214 211 205 205 209 212 217 236 328 344 344 344 338 334 331 330 334 333 332 333 332 333 334
145 134 120 176 124 119 294 215 184 179 181 153 193 201 152 88 114 78 54 25 308 257 227 214 212 211 213 217 283 336 341 347 343 334 329 329 332 332 331 332 333 334 333 330
129 101 78 127 100 189 237 312 170 126 94 132 103 106 121 145 122 80 8 332 306 284 244 219 214 212 212 234 306 327 339 336 327 329 330 330 329 329 332 334 334 331 329 330
43 125 109 144 193 290 159 180 151 154 202 188 127 122 111 119 81 64 352 307 291 283 253 225 215 212 220 257 307 331 331 325 329 330 330 328 330 332 333 331 328 328 328 328
49 70 105 102 147 208 226 139 139 130 241 182 146 140 135 125 92 257 315 279 285 269 228 212 208 217 237 283 322 328 328 328 329 328 328 330 331 330 327 326 328 328 327 327
74 39 126 124 234 287 234 156 148 126 212 147 146 140 145 165 197 264 277 276 219 197 199 207 214 229 264 305 321 323 322 326 326 326 326 326 326 326 327 326 327 326 328 328
158 136 168 120 162 264 164 86 162 151 132 140 145 158 177 183 217 304 331 298 250 233 223 225 237 262 290 310 316 317 323 323 323 323 323 326 326 325 325 325 327 328 328 327
197 165 180 174 213 170 145 146 135 141 148 162 166 174 183 197 268 321 311 288 269 255 248 247 258 277 296 306 314 319 318 319 320 320 323 323 323 325 328 328 327 326 326 327
278 153 121 117 216 121 124 131 133 139 143 155 167 188 218 238 273 297 302 285 268 257 251 254 264 283 296 308 311 315 317 316 317 319 320 323 325 327 327 324 324 324 326 327
190 133 143 111 86 106 173 154 155 153 157 161 187 237 259 263 272 282 287 277 262 254 253 255 273 288 296 300 307 314 314 314 314 317 322 325 324 325 323 323 326 326 325 322
193 178 166 213 188 157 186 163 161 167 181 196 228 271 279 276 274 273 269 256 246 251 256 274 278 283 293 303 311 314 310 312 317 321 324 325 324 323 324 325 325 328 326 321